Showing default

SPACEVAN-001, 58295

Orbit data source: Space-Track

SPACEVAN-001, 58295 is a payload satellite owned by Exotrail (FR) in SSO that was launched on Sat, 11 Nov 2023 UTC via an FALCON 9 launch vehicle from the Air Force Western Test Range (AFWTR). Payload-class satellites include a variety of spacecraft equipped with specific instruments for various scientific and technological missions. These include communications satellites like Starlink; space stations such as the ISS; scientific satellites like the Hubble; Earth observation satellites from companies like Planet Labs, Umbra, and HawkEye 360; GPS; miniature CubeSats for education and research; and military/defense satellites.

Loading next visibility...
Identifier
58295, 2023-174AR
Orbit
SSO
Country
Flag of FRFR
Related business
Manufacturer
NanoAvionics
Mission
Operational Commercial Technology
Bus & Motor
MP42, Unknown motor
Mass
125 kg wet, ~120 kg dry
Launch date (UTC)
2023-11-11 (3 years ago)
Launch vehicle
FALCON 9
Launch site
Air Force Western Test Range (AFWTR)
Object type
Payload
Rocket body
Debris
Shape & HBR
Box + 2 Pan, 1.8 m
Radar Cross Section
0.688 m², Large (>1 m²)

Expand to show TLE details & history
Last TLE update: 2 days ago

TLE from 2 days ago
0 SPACEVAN-001
1 58295U 23174AR  26221.35558226 -.00000039  00000-0  87928-6 0  9998
2 58295  97.3999 320.5403 0006478 226.9043 133.1671 15.59064505154423
Epoch: 2026-08-09T08:32Z
TLE epoch observation values (Epoch: 2026-08-09T08:32:02.307Z)
Latitude
-0.00009°
Longitude
-125.32306°
Altitude
396.508 km
Speed
7.671 km/s
True Right ascension
21h 22m 09s
True Declination
0° 00' 00"
Sunlit
Object was in full shadow at epoch
Visualization orbit readout
Latitude
Unknown
Longitude
Unknown
Altitude
Unknown
Speed
Unknown
Apparent Right ascension
Unknown
Apparent Declination
Unknown
Sunlit
N/A
Visualization observer readout
Local Sidereal Time
16:31:21
Azimuth
Unknown
Elevation
Unknown
Doppler factor
Unknown
Orbital elements
Apogee altitude
391.66 km
Perigee altitude
382.894 km
Semi-major axis
6,765.414 km
Eccentricity
0.00065
Inclination
97.3999°
RAAN
320.5403°
Arg. of periapsis
226.9043°
True anomaly
133.22121°
Mean anomaly
133.1671°
Eccentric anomaly
133.19416°
Mean motion
3.90033 °/min
Orbital period
92.3 mins
BSTAR
8.7928e-7
Loading maneuver chart data...
Computing Atmospheric mass density...

Documentation

Showing up to 5 results
|